Martinsburg, PA

1:48 AM EDT on August 25, 2016 (GMT -0400)
Altoona-Blair County

Weather History for KAOO - September, 2013

Change the Weather History Date:

Tuesday, September 10, 2013

  Actual Average Record
Temperature  
Mean Temperature 74 °F 64 °F  
Max Temperature 89 °F 74 °F 93 °F (1983)
Min Temperature 59 °F 53 °F 36 °F (1956)
Degree Days  
Heating Degree Days 0 3  
Month to date heating degree days 18 23  
Since 1 July heating degree days 39 47  
Cooling Degree Days 9 2  
Month to date cooling degree days 31 25  
Year to date cooling degree days 639 498  
Growing Degree Days 24 (Base 50)    
Moisture  
Dew Point 67 °F    
Average Humidity 80    
Maximum Humidity 100    
Minimum Humidity 59    
Precipitation  
Precipitation 0.00 in 0.12 in 1.32 in (1968)
Month to date precipitation 0.47 1.16  
Year to date precipitation 19.48 22.08  
Sea Level Pressure  
Sea Level Pressure 30.13 in    
Wind  
Wind Speed 7 mph (SW)    
Max Wind Speed 16 mph    
Max Gust Speed 22 mph    
Visibility 8 miles    
Events      
T = Trace of Precipitation, MM = Missing Value Source: NWS Daily Summary

Daily Weather History Graph

Daily Weather History Graph

Search for Another Location

Airport or City:

Trip Planner

Search our weather history database for the weather conditions in past years. The results will help you decide how hot, cold, wet, or windy it might be!

Date:

Astronomy

Sep. 10, 2013 Rise Set
Actual Time 6:49 AM EDT 7:30 PM EDT
Civil Twilight 6:22 AM EDT 7:57 PM EDT
Nautical Twilight 5:49 AM EDT 8:29 PM EDT
Astronomical Twilight 5:16 AM EDT 9:03 PM EDT
Moon 12:13 PM EDT (9/10) 10:30 PM EDT (9/10)
Length of Visible Light 13h 35m
Length of Day
12h 40m
Waxing Crescent, 28% of the Moon is Illuminated
Sep 10
Waxing Crescent
Sep 12
First Quarter
Sep 19
Full
Sep 26
Last Quarter
Oct 4
New

Hourly Weather History & Observations

Time (EDT) Temp. Heat Index Dew Point Humidity Pressure Visibility Wind Dir Wind Speed Gust Speed Precip Events Conditions
12:53 AM 63.0 °F - 61.0 °F 93% 30.14 in 10.0 mi Calm Calm - 0.01 in   Mostly Cloudy
1:53 AM 62.1 °F - 60.1 °F 93% 30.13 in 9.0 mi NW 3.5 mph - N/A   Clear
2:53 AM 62.1 °F - 60.1 °F 93% 30.11 in 10.0 mi WSW 3.5 mph - N/A   Clear
3:53 AM 60.1 °F - 59.0 °F 96% 30.11 in 6.0 mi Calm Calm - N/A   Clear
4:53 AM 61.0 °F - 60.1 °F 97% 30.12 in 8.0 mi Calm Calm - N/A   Clear
5:53 AM 61.0 °F - 60.1 °F 97% 30.14 in 10.0 mi Calm Calm - N/A   Clear
6:53 AM 61.0 °F - 60.1 °F 97% 30.15 in 9.0 mi Calm Calm - N/A   Partly Cloudy
7:53 AM 64.0 °F - 62.1 °F 93% 30.15 in 8.0 mi Calm Calm - N/A   Partly Cloudy
8:53 AM 70.0 °F - 64.9 °F 84% 30.16 in 9.0 mi Calm Calm - N/A   Partly Cloudy
9:53 AM 75.0 °F - 66.9 °F 76% 30.17 in 9.0 mi SSW 10.4 mph - N/A   Partly Cloudy
10:53 AM 79.0 °F - 69.1 °F 72% 30.17 in 9.0 mi SW 10.4 mph - N/A   Clear
11:53 AM 82.0 °F 85.9 °F 70.0 °F 67% 30.15 in 10.0 mi SW 11.5 mph - N/A   Clear
12:53 PM 86.0 °F 91.5 °F 71.1 °F 61% 30.13 in 10.0 mi SW 13.8 mph - N/A   Clear
1:53 PM 87.1 °F 92.8 °F 71.1 °F 59% 30.13 in 8.0 mi WSW 15.0 mph 20.7 mph N/A   Clear
2:53 PM 88.0 °F 94.7 °F 72.0 °F 59% 30.12 in 9.0 mi SW 11.5 mph - N/A   Partly Cloudy
3:53 PM 87.1 °F 93.6 °F 72.0 °F 61% 30.11 in 9.0 mi SW 10.4 mph - N/A   Scattered Clouds
4:53 PM 88.0 °F 94.7 °F 72.0 °F 59% 30.09 in 9.0 mi SW 11.5 mph - N/A   Clear
5:53 PM 86.0 °F 92.2 °F 72.0 °F 63% 30.10 in 9.0 mi SW 10.4 mph - N/A   Clear
6:53 PM 82.9 °F 88.0 °F 72.0 °F 69% 30.11 in 8.0 mi SSW 6.9 mph - N/A   Clear
7:53 PM 80.1 °F 83.8 °F 72.0 °F 76% 30.12 in 8.0 mi SSW 5.8 mph - N/A   Clear
8:53 PM 77.0 °F - 72.0 °F 84% 30.14 in 7.0 mi SSW 6.9 mph - N/A   Clear
9:53 PM 77.0 °F - 71.1 °F 82% 30.15 in 8.0 mi SW 4.6 mph - N/A   Clear
10:53 PM 75.9 °F - 71.1 °F 85% 30.16 in 7.0 mi SW 6.9 mph - N/A   Clear
11:53 PM 73.9 °F - 71.1 °F 91% 30.17 in 6.0 mi SSW 6.9 mph - N/A   Clear